2018-111Y (43898 NORAD) Tracking and Keplerian Element Data

This shows tracking and keplerian element data for the satellite.

Feedback or suggestion? Click here.




ElementValue
Catalog43898
Name2018-111Y
Epoch Orbit316
Epoch Day16.8368135
Epoch Year2019
RAAN286.1727
Inclination97.2996
Eccentricity0.0023148
Argument of Perigee171.9629
Mean Anonmoly188.1984
Mean Motion15.23540773
Decay Rate4.26E-06
L11 43898U 18111Y 19016.83681350 .00000426 00000-0 20634-4 0 9996
L22 43898 97.2996 286.1727 0023148 171.9629 188.1984 15.23540773 3168

Live tracking and technical data element details for 2018-111Y (NORAD 43898). 2018-111Y can be tracked NOW for your location showing map with azimuth and elevation plus other details from your city location.

Track the satellite on the map from your city or location and see movement details for azimuth, elevation, latitude, longitude, range, height, and movement on the map or in text.







IsCatalogInMostPopularTable: catalog: 43898, numindb: 21
Update: records affected: 1



GetName: 43898 2018-111Y

Hit Count: updated at: Thu, 17 Jan 2019 14:44:54 GMT